BRIK-II

导读 | 豆包AI

BRIK-II(布里克-Ⅱ)是荷兰发射的首颗军用纳米试验卫星,于北京时间2021年6月30日由维珍轨道公司送入太空。作为荷兰皇家空军主导的试验项目,它的成功发射标志着荷兰国防部正式迈入太空领域,是欧洲国家太空军事能力建设进程中的标志性事件,将为荷兰后续太空项目发展积累技术经验,助力荷兰探索太空领域国防能力建设。

Basic Information
目录编号:
48876
目录名称:
BRIK-II
国际标识:
2021-058F
轨道中心:
EARTH
卫星名称:
BRIK-II
卫星全名:
--
卫星状态:
已陨落 最后检测时间 2025-11-12
发射日期:
2021-06-30 UTC
国别 :
荷兰 (NL)
星等 :
--
Orbit Information
数据来源 国际轨道数据
星历时间: 2025-11-12T14:04:27+0800
轨道信息已过期144天
半长轴: 6545.028km
偏心率: 0.0001645
轨道倾角: 60.634°
近地点辐角 8.905°
升交点赤经 241.500°
平近点角 351.212°
近地点: 165.816km
远地点: 167.97km
周期: 87.827分钟
每日圈数: 16.395911
Detailed Information
使用方式:
暂无